Home   Weather   Lüdenscheid   Past weeks

Flag for Germany Past Weather in Lüdenscheid, North Rhine-Westphalia, Germany — Yesterday and Last 2 Weeks

Now
61 °F

Scattered showers. Clear.


Feels Like: 61 °F
Forecast: 49 / 61 °F
Wind: 7 mph from Southwest

Location: Dortmund / Wickede

Current Time: Aug 18, 2017 at 7:11:20 am

Latest Report: Aug 18, 2017 at 6:20 am


Visibility: N/A

Pressure: 29.95 "Hg

Humidity: 88%

Dew Point: 57 °F

Location of LüdenscheidLocation

Past Weather in Lüdenscheid — Graph

°F

Lüdenscheid Temperature Yesterday

Maximum temperature yesterday: 73 °F (at 1:50 pm)
Minimum temperature yesterday: 61 °F (at 5:20 am)
Average temperature yesterday: 67 °F

High & Low Weather Summary for the Past Weeks

 TemperatureHumidityPressure
High77 °F (Aug 15, 3:20 pm)94% (Aug 5, 8:50 am)30.21 "Hg (Aug 5, 8:50 am)
Low48 °F (Aug 6, 5:50 am)29% (Aug 7, 6:20 pm)29.77 "Hg (Aug 8, 11:20 am)
Average64 °F69%30.01 "Hg
* Reported Aug 3 5:20 am — Aug 18 5:50 am, Lüdenscheid. Weather by CustomWeather, © 2017

Note: Actual official high and low records may vary slightly from our data, if they occured in-between our weather recording intervals... More about our weather records

Advertising

Lüdenscheid Weather History for the Previous 24 Hours

Scroll right to see more
 ConditionsComfort  
Time TempWeatherWind HumidityBarometerVisibility
5:50 am
Fri, Aug 18
61 °FSprinkles. Clear.9 mph88%29.95 "Hg4 mi
5:20 am61 °FClear.7 mph88%29.95 "Hg10 mi
9:50 pm
Thu, Aug 17
64 °FPassing clouds.9 mph83%29.98 "HgN/A
9:20 pm66 °FPassing clouds.10 mph73%29.98 "HgN/A
8:50 pm66 °FPassing clouds.12 mph73%29.98 "HgN/A
8:20 pm66 °FPassing clouds.10 mph73%29.98 "HgN/A
7:50 pm66 °FPassing clouds.10 mph73%29.98 "HgN/A
7:20 pm66 °FPassing clouds.9 mph73%29.98 "HgN/A
6:50 pm66 °FPassing clouds.14 mph73%29.98 "HgN/A
6:20 pm68 °FDrizzle. Partly sunny.16 mph69%29.98 "HgN/A
5:50 pm68 °FPartly sunny.17 mph69%29.98 "HgN/A
5:20 pm70 °FPartly sunny.17 mph64%29.98 "HgN/A
4:50 pm68 °FPartly sunny.18 mph69%29.98 "HgN/A
4:20 pm70 °FPartly sunny.21 mph64%29.98 "HgN/A
3:20 pm72 °FPartly sunny.16 mph61%29.95 "HgN/A
2:50 pm73 °FPartly sunny.14 mph57%29.95 "HgN/A
2:20 pm73 °FPartly sunny.14 mph57%29.98 "HgN/A
1:50 pm73 °FPassing clouds.14 mph61%29.98 "HgN/A
1:20 pm72 °FPassing clouds.12 mph61%29.98 "HgN/A
12:50 pm72 °FPassing clouds.13 mph61%29.98 "HgN/A
12:20 pm72 °FPassing clouds.10 mph61%29.98 "HgN/A
11:50 am72 °FPassing clouds.15 mph61%29.98 "HgN/A
11:20 am72 °FPassing clouds.9 mph57%30.01 "HgN/A
10:50 am70 °FPassing clouds.8 mph60%30.01 "HgN/A
10:20 am68 °FSunny.9 mph64%30.01 "Hg10 mi
9:50 am68 °FPassing clouds.8 mph69%30.01 "HgN/A
9:20 am66 °FSunny.9 mph73%30.01 "Hg10 mi
8:50 am64 °FSunny.7 mph78%30.01 "Hg10 mi
8:20 am64 °FSunny.7 mph78%30.01 "Hg10 mi
7:50 am63 °FSunny.10 mph77%30.01 "Hg10 mi
7:20 am61 °FSunny.8 mph83%30.01 "Hg10 mi
Weather by CustomWeather, © 2017

See weather overviewHow to use our weather pages